User: anonymous   Login
Location: Oshawa
(43.9000°N, 78.8670°W)
Time: 06:29:01
(UTC-05:00)
Language:

Cosmos 1500 - Orbit

View from above orbital plane
View from above orbital plane
View from above satellite
View from above satellite

Ground track
Ground track

The orbit data is extracted from the following two-line orbital elements,

1 14372U 83099A   16344.02472775  .00001008  00000-0  49069-4 0  9999
2 14372  82.5141 171.4477 0016521  31.4302 126.7617 15.17096405808968
Epoch (UTC): 09 December 2016 00:35:36
Eccentricity: 0.0016521
inclination: 82.5141°
perigee height: 503 km
apogee height: 526 km
right ascension of ascending node: 171.4477°
argument of perigee: 31.4302°
revolutions per day: 15.17096405
mean anomaly at epoch: 126.7617°
orbit number at epoch: 80896

The dashed part of the orbit path shows where the satellite is in the earth's shadow,  

DLR